Theta_e
354 352 352 347 346 352 350 344 338 333 334 341 341 339 333 330 332 328 327 334 333 332 332 331 331 331 329 328 328 328 328 329 331 335 339 344 351 353
351 351 351 345 348 347 348 348 344 338 333 341 341 341 334 332 334 332 329 333 333 332 330 329 330 330 329 329 329 329 328 327 330 333 336 337 340 343
357 352 350 350 348 345 343 343 345 346 337 343 345 345 345 335 327 335 332 326 328 333 332 331 329 329 329 326 325 326 327 327 327 330 332 334 334 335
355 355 351 346 349 350 347 345 343 345 345 338 340 342 341 342 335 338 329 329 327 332 332 331 330 328 327 323 322 321 321 323 326 325 326 329 330 332
359 357 355 351 351 345 345 340 339 339 347 344 337 340 341 340 338 336 337 337 336 332 331 331 329 329 324 321 319 318 318 319 319 319 322 321 324 326
346 344 349 352 349 350 346 346 343 345 341 344 340 338 338 340 337 333 333 336 327 324 329 327 329 329 325 321 319 320 320 319 318 317 317 318 321 322
334 335 339 341 345 347 345 345 341 341 340 338 338 338 336 335 332 333 331 330 333 328 323 321 322 321 320 322 321 322 320 319 318 317 316 315 316 318
336 333 333 340 340 343 339 338 343 343 336 338 334 336 335 335 334 332 329 328 323 330 324 319 319 317 317 316 324 322 319 319 318 316 316 316 316 316
338 334 332 337 340 342 337 336 334 334 335 341 341 341 342 338 335 333 332 330 325 331 327 323 326 323 322 320 323 321 318 317 317 316 315 315 314 314
338 335 333 335 338 340 340 338 334 332 331 333 335 342 345 343 338 335 335 335 333 328 330 319 326 320 322 316 324 321 319 319 316 315 315 314 313 311
338 337 335 336 336 335 338 336 331 330 329 332 334 331 334 339 342 336 330 326 324 326 329 321 324 320 325 317 318 323 320 318 317 318 318 315 312 309
346 341 332 336 331 329 337 336 331 329 331 330 330 332 334 335 335 335 330 323 322 321 326 318 319 321 319 324 318 315 316 316 314 314 314 319 314 310
345 345 343 328 326 322 327 334 333 332 333 335 333 336 337 334 332 333 336 327 323 322 327 322 320 322 320 321 323 318 317 316 312 312 311 311 313 313
347 347 346 325 321 320 323 328 327 328 335 333 330 330 331 331 330 330 331 337 334 335 326 326 324 323 318 316 318 324 321 323 315 317 313 311 310 311
351 334 325 320 317 320 321 323 324 331 331 330 328 327 331 332 330 329 330 334 335 332 330 333 328 328 324 321 320 323 321 323 325 317 318 316 314 312
331 337 333 329 324 328 327 324 327 331 330 329 329 330 330 330 328 326 323 327 329 329 330 332 333 329 325 323 323 321 323 318 323 321 318 314 315 317
338 339 337 331 329 328 329 329 329 329 327 329 329 329 329 329 327 325 324 326 323 325 325 329 332 331 328 326 321 323 324 321 322 318 315 312 315 318
336 341 334 333 330 329 327 327 326 327 326 327 329 328 327 327 324 323 325 323 323 322 323 325 328 327 327 327 331 323 323 321 321 318 316 311 311 316
334 339 337 335 333 331 329 328 326 327 329 326 327 327 327 329 324 324 323 322 322 323 323 325 325 323 318 315 322 323 321 321 320 316 315 314 312 315
329 335 335 335 334 333 331 329 328 328 327 326 326 326 325 326 325 322 321 321 321 324 322 325 325 324 320 317 317 324 316 322 318 315 314 315 317 320
334 335 338 339 340 338 334 331 330 328 326 326 326 325 324 324 325 323 322 314 318 322 322 323 325 325 325 324 320 316 318 314 317 316 315 311 310 312
329 331 334 335 337 340 340 335 332 330 328 325 325 324 324 322 324 324 321 321 320 322 323 325 325 324 322 321 320 320 316 314 309 310 313 314 311 307
323 328 331 331 333 337 337 336 335 333 331 328 326 325 324 323 324 325 323 321 323 321 323 321 322 322 321 320 319 320 319 311 309 307 308 311 311 311
Wind_Speed
3 3 3 5 4 1 4 6 6 5 7 6 4 7 6 8 11 8 8 10 9 8 6 5 4 4 5 6 7 8 11 13 15 18 20 23 21 17
5 6 5 4 5 1 0 5 7 4 4 4 4 9 10 8 13 7 10 14 12 10 8 6 4 2 2 5 7 8 7 10 12 13 14 16 16 19
6 6 7 6 4 3 4 3 2 2 4 2 3 5 5 9 7 5 10 7 7 13 11 9 7 4 2 4 5 7 9 7 7 9 11 12 12 13
7 6 6 5 6 4 4 4 1 3 3 7 6 5 4 6 5 7 8 9 9 15 13 11 9 7 6 4 4 5 8 9 8 7 8 9 9 8
6 6 5 5 5 4 5 4 3 2 1 6 8 5 3 5 5 4 4 5 5 16 12 11 10 9 8 7 5 4 4 6 7 8 7 5 5 5
15 16 11 7 6 6 5 6 3 3 4 3 8 9 9 7 6 5 4 3 5 9 11 11 12 12 11 9 8 6 4 4 5 6 6 6 4 4
13 15 16 12 20 11 5 6 5 4 4 4 3 7 8 8 9 6 5 5 4 4 5 6 6 5 6 9 8 9 6 4 2 3 4 5 5 4
9 5 17 21 14 12 10 5 2 5 6 4 5 4 9 10 8 5 5 3 4 6 5 5 7 6 6 6 11 11 8 4 2 3 4 4 5 6
9 12 15 7 9 6 9 6 5 6 5 1 3 3 5 12 11 8 5 5 5 4 5 3 6 6 8 8 13 11 9 5 2 2 2 5 6 6
11 12 13 7 8 8 8 6 7 8 7 5 4 5 5 7 11 9 7 4 3 4 5 3 3 3 5 7 15 12 11 9 7 4 6 8 7 7
6 4 7 8 8 11 8 8 7 7 7 8 6 5 6 11 8 6 4 5 3 3 3 5 3 3 5 4 5 12 12 10 9 7 6 9 9 9
7 5 9 9 11 15 11 9 8 8 6 6 5 2 7 9 12 7 5 5 4 3 5 5 3 4 2 4 5 5 5 9 11 9 7 9 10 5
7 6 6 14 13 14 15 11 10 6 9 7 6 5 5 5 5 5 4 5 4 5 7 5 5 3 3 2 4 5 6 4 6 5 10 11 11 6
6 5 6 13 16 16 13 12 11 8 6 6 8 7 7 7 6 6 6 4 3 3 9 7 5 5 4 3 4 4 6 6 5 5 5 8 11 10
5 3 5 5 11 11 14 14 11 6 7 7 9 9 8 8 7 6 5 5 5 4 6 3 4 3 4 3 2 2 3 4 4 5 4 7 6 5
7 7 2 4 7 8 7 9 8 10 10 9 8 7 7 7 8 8 7 6 4 4 5 4 5 5 3 3 2 2 3 3 3 3 4 2 2 3
6 4 4 3 4 5 5 6 8 8 9 6 3 3 4 6 9 8 8 7 6 6 5 4 4 4 3 3 1 3 4 3 3 4 3 2 3 5
3 5 6 5 6 6 7 7 8 11 10 8 6 5 4 4 8 8 7 10 9 8 8 7 5 3 1 3 7 4 4 3 3 5 3 3 3 5
5 8 7 8 8 7 8 8 9 10 10 10 10 10 8 5 7 8 10 10 10 10 8 9 9 7 8 8 3 15 8 4 3 4 4 4 4 4
6 8 8 7 8 8 8 8 8 8 10 10 12 11 12 10 7 11 11 13 12 10 10 8 11 11 9 7 4 5 16 5 4 4 3 3 4 8
11 11 9 10 10 10 10 10 10 10 11 10 12 12 13 13 12 11 11 14 12 12 12 12 11 14 7 2 4 2 3 11 4 5 4 3 2 2
13 12 11 9 9 6 5 9 9 11 10 11 12 13 13 14 14 13 13 12 14 14 12 6 7 9 7 8 10 6 5 3 5 4 4 9 5 4
13 13 11 11 11 10 9 9 9 10 11 12 12 12 13 13 14 13 13 13 11 13 12 10 7 5 8 8 10 9 7 7 6 5 5 12 10 10
Wind_Direction
223 252 266 284 295 75 154 171 159 169 215 172 153 157 120 135 157 165 151 162 156 157 158 137 106 74 49 36 30 28 26 23 22 19 18 29 38 65
230 187 219 264 275 308 247 185 202 190 198 182 182 148 154 153 174 167 165 165 171 177 180 174 160 136 46 21 15 12 16 27 25 23 32 38 48 61
252 177 202 246 271 203 231 253 268 205 145 136 129 148 145 152 170 170 158 168 180 187 187 185 180 181 116 61 44 29 27 18 27 29 35 44 54 67
221 238 208 227 252 287 297 250 260 1 113 150 137 140 138 108 166 158 173 192 183 188 185 185 179 178 155 127 86 52 40 26 26 31 38 40 42 62
206 220 224 228 247 235 223 267 230 239 208 132 148 155 151 151 162 212 227 264 197 160 169 180 177 172 167 165 139 99 66 39 28 33 31 23 25 44
11 355 334 298 236 234 244 228 231 244 213 173 160 170 170 176 164 177 230 237 148 168 174 169 172 175 182 175 161 164 128 65 23 11 17 24 3 331
59 15 313 293 303 286 191 232 218 227 192 189 193 174 174 172 181 181 189 201 211 156 162 163 169 172 181 181 187 176 137 99 49 10 8 7 1 347
96 121 280 252 241 269 281 216 217 215 224 174 201 191 183 171 174 184 188 181 205 168 153 199 166 189 179 180 191 170 146 129 79 43 20 355 330 311
178 195 223 234 222 212 223 248 274 288 277 278 259 232 169 172 168 183 190 198 196 192 144 217 161 188 176 161 163 170 154 167 208 249 302 301 295 292
212 205 217 212 197 211 210 201 223 232 229 220 212 273 292 171 168 172 173 171 156 137 132 189 170 186 111 156 173 175 180 190 207 236 262 272 278 273
235 214 214 204 192 202 209 216 203 234 238 242 221 278 265 157 152 135 155 148 184 189 178 140 193 184 146 170 182 191 189 192 212 232 253 269 284 287
234 210 209 204 197 198 205 213 218 219 205 192 196 208 202 171 160 153 159 169 173 210 180 147 176 159 184 170 174 180 201 208 215 215 232 259 277 306
228 232 214 205 219 200 201 210 213 194 222 199 194 179 182 176 175 170 181 169 197 212 181 135 171 190 165 139 156 191 186 202 210 211 221 238 254 245
213 224 226 194 197 197 200 215 208 206 217 204 194 197 188 189 192 182 193 221 171 204 179 148 163 157 161 187 208 168 197 195 180 203 197 214 232 255
256 67 28 221 198 190 201 212 220 216 220 230 208 202 204 196 173 174 190 207 135 135 168 165 139 148 146 164 192 162 166 224 191 178 181 175 200 208
276 274 230 175 187 210 200 219 221 229 223 222 230 213 196 178 187 173 185 186 149 177 171 180 145 132 138 159 177 274 243 199 173 179 150 143 262 265
199 231 212 187 204 200 208 199 204 210 224 233 232 261 213 203 186 175 184 178 189 178 174 174 178 158 162 156 192 246 270 232 179 154 119 183 258 249
214 241 245 229 215 211 212 207 199 204 214 215 216 211 240 214 184 181 175 194 191 200 191 181 168 144 136 270 193 234 252 239 174 162 139 155 268 274
249 262 243 234 226 220 216 211 215 212 206 208 212 209 214 226 184 192 192 195 198 194 199 184 178 180 191 215 234 205 225 229 185 151 170 179 209 249
250 248 245 239 237 226 221 220 223 217 210 208 210 210 206 217 203 202 195 200 201 192 197 197 190 184 189 198 206 232 198 179 180 181 198 221 213 173
294 290 263 238 234 216 218 213 216 219 210 208 213 211 209 205 212 205 205 204 199 202 202 203 193 171 172 204 221 202 212 225 153 166 176 160 196 220
310 309 314 315 311 273 220 217 223 209 213 212 213 212 211 208 209 211 211 204 206 203 209 179 154 163 172 216 226 209 183 166 210 248 242 173 171 207
308 305 305 307 305 292 274 262 238 228 211 209 213 211 211 213 213 210 212 205 210 209 199 177 174 152 187 213 236 230 168 175 170 183 234 217 216 242